TimeMDT,TemperatureF,Dew PointF,Humidity,Sea Level PressureIn,VisibilityMPH,Wind Direction,Wind SpeedMPH,Gust SpeedMPH,PrecipitationIn,Events,Conditions,WindDirDegrees,DateUTC
12:53 AM,41.0,26.1,55,30.18,10.0,South,9.2,-,N/A,,Clear,180,2012-10-30 06:53:00
1:53 AM,39.0,25.0,57,30.17,10.0,SSE,6.9,-,N/A,,Clear,160,2012-10-30 07:53:00
2:53 AM,35.1,24.1,64,30.20,10.0,SSE,5.8,-,N/A,,Clear,150,2012-10-30 08:53:00
3:53 AM,35.1,25.0,67,30.19,10.0,SSE,8.1,-,N/A,,Clear,160,2012-10-30 09:53:00
5:53 AM,34.0,24.1,67,30.22,10.0,South,8.1,-,N/A,,Clear,170,2012-10-30 11:53:00
6:53 AM,33.1,24.1,70,30.24,10.0,SSE,6.9,-,N/A,,Clear,150,2012-10-30 12:53:00
7:53 AM,33.1,24.1,70,30.27,10.0,SSE,6.9,-,N/A,,Clear,160,2012-10-30 13:53:00
8:53 AM,39.0,25.0,57,30.27,10.0,SSE,8.1,-,N/A,,Clear,160,2012-10-30 14:53:00
9:53 AM,46.0,26.1,46,30.25,10.0,Calm,Calm,-,N/A,,Clear,0,2012-10-30 15:53:00
10:53 AM,52.0,26.1,37,30.21,10.0,NNW,5.8,-,N/A,,Clear,330,2012-10-30 16:53:00
11:53 AM,55.0,27.0,34,30.19,10.0,NW,5.8,-,N/A,,Clear,320,2012-10-30 17:53:00
12:53 PM,57.9,28.0,32,30.16,10.0,Calm,Calm,-,N/A,,Clear,0,2012-10-30 18:53:00
1:53 PM,62.1,27.0,26,30.12,10.0,North,6.9,-,N/A,,Clear,350,2012-10-30 19:53:00
2:53 PM,64.0,25.0,23,30.10,10.0,North,5.8,-,N/A,,Clear,350,2012-10-30 20:53:00
3:53 PM,64.9,25.0,22,30.09,10.0,NNW,6.9,-,N/A,,Clear,340,2012-10-30 21:53:00
4:53 PM,64.9,23.0,20,30.09,10.0,NW,6.9,-,N/A,,Clear,320,2012-10-30 22:53:00
5:53 PM,62.1,25.0,24,30.11,10.0,WNW,9.2,-,N/A,,Clear,300,2012-10-30 23:53:00
6:53 PM,55.9,24.1,29,30.14,10.0,West,3.5,-,N/A,,Clear,260,2012-10-31 00:53:00
7:53 PM,48.0,25.0,41,30.19,10.0,SSE,8.1,-,N/A,,Clear,160,2012-10-31 01:53:00
8:53 PM,45.0,25.0,46,30.18,10.0,SE,9.2,-,N/A,,Clear,140,2012-10-31 02:53:00
9:53 PM,43.0,24.1,47,30.17,10.0,SE,9.2,-,N/A,,Clear,140,2012-10-31 03:53:00
10:53 PM,43.0,23.0,45,30.17,10.0,SE,10.4,-,N/A,,Clear,130,2012-10-31 04:53:00
11:53 PM,41.0,21.9,47,30.17,10.0,SE,9.2,-,N/A,,Clear,140,2012-10-31 05:53:00